Location: Gülübeli Geçidi
(36.8411°N, 29.7411°E)
Time: 13:44:29
(UTC+00:00)

SL-16 R/B - Pass Details

Date: 15 May 2026
Orbit: 841 x 844 km, 71.0° (Epoch: 10 June)

Event Time Altitude Azimuth Distance (km) Brightness Sun altitude
Rises 17:42:23 0° 356° (N) 3,409 5.9 -8.0°
Reaches altitude 10° 17:46:20 10° 23° (NNE) 2,470 4.7 -8.7°
Maximum altitude 17:48:57 13° 51° (NE) 2,243 4.2 -9.1°
Drops below altitude 10° 17:51:34 10° 79° (E) 2,464 4.2 -9.6°
Enters shadow 17:52:53 - 90° (E) 2,718 4.3 -9.8°
